Location: *
(41.7492°S, 135.4150°W)
Time: 03:02:53
(UTC+00:00)

ITAMSAT 1 - Pass Details

Date: 30 June 2022
Orbit: 784 x 795 km, 98.9° (Epoch: 09 August)

Event Time Altitude Azimuth Distance (km) Brightness Sun altitude
Rises 15:43:41 0° 24° (NNE) 3,292 11.7 -8.5°
Reaches altitude 10° 15:46:01 10° 26° (NNE) 2,370 11.0 -8.1°
Maximum altitude 15:51:12 67° 108° (ESE) 874 8.1 -7.2°
Drops below altitude 10° 15:56:27 10° 188° (S) 2,395 9.8 -6.3°
Sets 15:58:48 0° 191° (S) 3,330 10.5 -5.9°
